Dodge City, KS

4:40 AM CST on February 28, 2017 (GMT -0600)
Dodge City Regional

Weather History for KDDC - February, 2013

Change the Weather History Date:

Tuesday, February 12, 2013

  Actual Average Record
Temperature  
Mean Temperature 36 °F -  
Max Temperature 45 °F 48 °F 82 °F (1962)
Min Temperature 27 °F 23 °F -26 °F (1899)
Degree Days  
Heating Degree Days 29    
Moisture  
Dew Point 26 °F    
Average Humidity 74    
Maximum Humidity 93    
Minimum Humidity 34    
Precipitation  
Precipitation 0.00 in - - ()
Sea Level Pressure  
Sea Level Pressure 30.07 in    
Wind  
Wind Speed 4 mph (SW)    
Max Wind Speed 13 mph    
Max Gust Speed -    
Visibility 9 miles    
Events      
Averages and records for this station are not official NWS values.
T = Trace of Precipitation, MM = Missing Value Source: NWS Daily Summary

Daily Weather History Graph

Daily Weather History Graph

Search for Another Location

Airport or City:

Trip Planner

Search our weather history database for the weather conditions in past years. The results will help you decide how hot, cold, wet, or windy it might be!

Date:

Astronomy

Feb. 12, 2013 Rise Set
Actual Time 7:32 AM CST 6:16 PM CST
Civil Twilight 7:05 AM CST 6:43 PM CST
Nautical Twilight 6:34 AM CST 7:13 PM CST
Astronomical Twilight 6:04 AM CST 7:44 PM CST
Moon 8:34 AM CST (2/12) 9:14 PM CST (2/12)
Length of Visible Light 11h 37m
Length of Day
10h 43m
Waxing Crescent, 7% of the Moon is Illuminated
Feb 12
Waxing Crescent
Feb 17
First Quarter
Feb 25
Full
Mar 4
Last Quarter
Mar 11
New

Hourly Weather History & Observations

Time (CST) Temp. Windchill Dew Point Humidity Pressure Visibility Wind Dir Wind Speed Gust Speed Precip Events Conditions
12:52 AM 28.9 °F 25.2 °F 17.1 °F 61% 30.10 in 10.0 mi NNE 3.5 mph - N/A   Overcast
1:52 AM 28.9 °F 23.9 °F 18.0 °F 64% 30.12 in 10.0 mi ESE 4.6 mph - N/A   Overcast
2:52 AM 30.9 °F - 19.0 °F 61% 30.14 in 10.0 mi Calm Calm - N/A   Overcast
3:52 AM 32.0 °F 26.4 °F 24.1 °F 73% 30.12 in 10.0 mi South 5.8 mph - 0.00 in   Overcast
4:52 AM 32.0 °F 28.7 °F 28.9 °F 88% 30.10 in 7.0 mi South 3.5 mph - 0.00 in   Overcast
5:28 AM 30.2 °F 26.7 °F 28.4 °F 93% 30.06 in 8.0 mi SSE 3.5 mph - N/A   Overcast
5:33 AM 30.2 °F 26.7 °F 28.4 °F 93% 30.06 in 8.0 mi South 3.5 mph - N/A   Overcast
5:52 AM 30.9 °F - 28.9 °F 92% 30.09 in 8.0 mi Calm Calm - N/A   Overcast
6:52 AM 30.9 °F - 28.0 °F 89% 30.08 in 4.0 mi Calm Calm - N/A   Overcast
6:59 AM 30.2 °F - 28.4 °F 93% 30.04 in 5.0 mi Calm Calm - N/A   Overcast
7:52 AM 30.0 °F 25.2 °F 28.0 °F 92% 30.08 in 5.0 mi WNW 4.6 mph - N/A   Overcast
8:52 AM 32.0 °F 26.4 °F 28.0 °F 85% 30.11 in 10.0 mi NW 5.8 mph - N/A   Overcast
9:52 AM 35.1 °F - 28.9 °F 78% 30.12 in 10.0 mi Calm Calm - N/A   Overcast
10:52 AM 37.0 °F 33.3 °F 28.0 °F 70% 30.12 in 10.0 mi North 4.6 mph - N/A   Mostly Cloudy
11:52 AM 39.0 °F 36.8 °F 27.0 °F 62% 30.10 in 10.0 mi Variable 3.5 mph - N/A   Overcast
12:52 PM 39.9 °F 37.8 °F 25.0 °F 55% 30.07 in 10.0 mi NE 3.5 mph - N/A   Overcast
1:52 PM 41.0 °F 39.0 °F 25.0 °F 53% 30.05 in 10.0 mi North 3.5 mph - N/A   Overcast
2:52 PM 43.0 °F - 24.1 °F 47% 30.03 in 10.0 mi Calm Calm - N/A   Partly Cloudy
3:52 PM 43.0 °F - 25.0 °F 49% 30.01 in 10.0 mi Calm Calm - N/A   Overcast
4:52 PM 41.0 °F 35.2 °F 30.9 °F 67% 30.02 in 10.0 mi SSW 9.2 mph - N/A   Overcast
5:52 PM 37.9 °F 31.5 °F 30.9 °F 76% 30.01 in 10.0 mi SSW 9.2 mph - N/A   Clear
6:52 PM 32.0 °F 24.8 °F 28.0 °F 85% 30.03 in 10.0 mi SSW 8.1 mph - N/A   Clear
7:52 PM 32.0 °F 23.0 °F 28.9 °F 88% 30.04 in 10.0 mi SW 11.5 mph - N/A   Clear
8:52 PM 30.0 °F 22.4 °F 28.0 °F 92% 30.05 in 7.0 mi SW 8.1 mph - N/A   Clear
9:52 PM 30.0 °F 20.0 °F 28.0 °F 92% 30.05 in 8.0 mi WSW 12.7 mph - N/A   Clear
10:52 PM 28.0 °F 19.3 °F 25.0 °F 88% 30.04 in 8.0 mi WSW 9.2 mph - N/A   Clear
11:52 PM 27.0 °F 17.3 °F 23.0 °F 85% 30.05 in 8.0 mi West 10.4 mph - N/A   Clear